Buffalo, NY

2:18 AM EDT on June 29, 2017 (GMT -0400)
Buffalo Niagara International

Weather History for KBUF - December, 2014

Change the Weather History Date:

Sunday, December 14, 2014

  Actual Average Record
Temperature  
Mean Temperature 37 °F 30 °F  
Max Temperature 38 °F 36 °F 71 °F (2015)
Min Temperature 35 °F 25 °F 2 °F (1989)
Degree Days  
Heating Degree Days 28 35  
Month to date heating degree days 452 454  
Since 1 July heating degree days 1750 1787  
Cooling Degree Days 0 0  
Month to date cooling degree days 0 0  
Year to date cooling degree days 516 544  
Moisture  
Dew Point 35 °F    
Average Humidity 92    
Maximum Humidity 92    
Minimum Humidity 92    
Precipitation  
Precipitation T in 0.13 in 1.53 in (1901)
Month to date precipitation 0.90 1.77  
Year to date precipitation 41.15 38.36  
Snow  
Snow 0.00 in 1.00 in 10.10 in (1907)
Month to date snowfall 9.4 10.4  
Since 1 July snowfall 29.9 19.2  
Snow Depth 2.00 in    
Sea Level Pressure  
Sea Level Pressure 30.00 in    
Wind  
Wind Speed 8 mph (West)    
Max Wind Speed 15 mph    
Max Gust Speed 19 mph    
Visibility 5 miles    
Events Rain    
T = Trace of Precipitation, MM = Missing Value Source: NWS Daily Summary

Daily Weather History Graph

Daily Weather History Graph

Search for Another Location

Airport or City:

Trip Planner

Search our weather history database for the weather conditions in past years. The results will help you decide how hot, cold, wet, or windy it might be!

Date:

Astronomy

Dec. 14, 2014 Rise Set
Actual Time 7:38 AM EST 4:40 PM EST
Civil Twilight 7:06 AM EST 5:13 PM EST
Nautical Twilight 6:30 AM EST 5:48 PM EST
Astronomical Twilight 5:55 AM EST 6:23 PM EST
Moon No Moon Rise 12:20 PM EST (12/14)
Length of Visible Light 10h 07m
Length of Day
9h 02m
Waning Gibbous, 48% of the Moon is Illuminated
Dec 14
Waning Gibbous
Dec 21
New
Dec 28
First Quarter
Jan 4
Full
Jan 13
Last Quarter

Hourly Weather History & Observations

Time (EST) Temp. Windchill Dew Point Humidity Pressure Visibility Wind Dir Wind Speed Gust Speed Precip Events Conditions
12:04 AM 37.0 °F 31.0 °F 35.1 °F 93% 29.93 in 2.5 mi WSW 8.1 mph - N/A   Overcast
12:54 AM 37.0 °F 29.3 °F 35.1 °F 93% 29.94 in 2.5 mi West 11.5 mph - 0.00 in   Light Drizzle
1:09 AM 37.0 °F 29.3 °F 35.1 °F 93% 29.91 in 2.5 mi West 11.5 mph - 0.00 in   Light Drizzle
1:36 AM 37.0 °F 30.4 °F 35.1 °F 93% 29.92 in 3.0 mi West 9.2 mph - 0.00 in   Light Drizzle
1:54 AM 37.0 °F 29.8 °F 35.1 °F 93% 29.95 in 3.0 mi WNW 10.4 mph 19.6 mph 0.00 in   Light Drizzle
2:16 AM 37.0 °F 29.3 °F 35.1 °F 93% 29.93 in 4.0 mi WNW 11.5 mph - 0.00 in   Light Drizzle
2:54 AM 37.0 °F 30.4 °F 35.1 °F 93% 29.95 in 4.0 mi West 9.2 mph - 0.00 in   Light Drizzle
3:54 AM 37.0 °F 30.4 °F 35.1 °F 93% 29.95 in 3.0 mi West 9.2 mph - 0.00 in   Light Drizzle
4:54 AM 37.0 °F 30.4 °F 35.1 °F 93% 29.95 in 4.0 mi West 9.2 mph - 0.00 in   Light Drizzle
5:23 AM 36.0 °F 28.0 °F 35.1 °F 97% 29.94 in 3.0 mi West 11.5 mph - 0.00 in   Light Drizzle
5:40 AM 36.0 °F 28.5 °F 34.0 °F 93% 29.95 in 3.0 mi West 10.4 mph - 0.00 in   Light Drizzle
5:54 AM 36.0 °F 28.0 °F 34.0 °F 93% 29.98 in 3.0 mi West 11.5 mph - 0.00 in   Light Drizzle
6:43 AM 36.0 °F 29.6 °F 34.0 °F 93% 29.96 in 5.0 mi West 8.1 mph - 0.00 in   Light Drizzle
6:54 AM 36.0 °F 29.6 °F 34.0 °F 93% 29.99 in 5.0 mi WSW 8.1 mph - 0.00 in   Light Drizzle
7:54 AM 36.0 °F 29.6 °F 34.0 °F 93% 30.00 in 6.0 mi WSW 8.1 mph - 0.00 in   Light Drizzle
8:54 AM 36.0 °F 29.0 °F 34.0 °F 93% 30.01 in 4.0 mi West 9.2 mph - 0.00 in   Light Drizzle
9:23 AM 37.0 °F 30.4 °F 35.1 °F 93% 29.99 in 5.0 mi West 9.2 mph - 0.00 in   Light Drizzle
9:54 AM 37.0 °F 30.4 °F 35.1 °F 93% 30.03 in 4.0 mi West 9.2 mph - 0.00 in   Light Drizzle
10:54 AM 37.0 °F 30.4 °F 35.1 °F 93% 30.03 in 4.0 mi West 9.2 mph - 0.00 in   Light Drizzle
11:54 AM 37.0 °F 29.8 °F 35.1 °F 93% 30.01 in 4.0 mi West 10.4 mph - 0.00 in   Light Drizzle
12:54 PM 37.9 °F 30.9 °F 35.1 °F 89% 30.00 in 5.0 mi West 10.4 mph - 0.00 in   Overcast
1:54 PM 37.9 °F 30.9 °F 35.1 °F 89% 30.00 in 5.0 mi West 10.4 mph - N/A   Overcast
2:54 PM 37.9 °F 30.9 °F 35.1 °F 89% 30.02 in 5.0 mi West 10.4 mph - 0.00 in   Light Drizzle
3:54 PM 37.9 °F 32.1 °F 36.0 °F 93% 30.03 in 5.0 mi WSW 8.1 mph - 0.00 in   Light Drizzle
4:34 PM 37.9 °F 32.7 °F 35.1 °F 89% 30.01 in 7.0 mi WSW 6.9 mph - 0.00 in   Overcast
4:54 PM 37.9 °F 34.4 °F 36.0 °F 93% 30.04 in 8.0 mi West 4.6 mph - 0.00 in   Light Drizzle
5:54 PM 37.9 °F 32.1 °F 35.1 °F 89% 30.05 in 9.0 mi West 8.1 mph - 0.00 in   Light Drizzle
6:54 PM 37.9 °F 32.7 °F 35.1 °F 89% 30.07 in 8.0 mi West 6.9 mph - 0.00 in   Overcast
7:54 PM 37.9 °F 34.4 °F 35.1 °F 89% 30.07 in 8.0 mi WNW 4.6 mph - N/A   Overcast
8:54 PM 37.9 °F 35.5 °F 35.1 °F 89% 30.07 in 8.0 mi WNW 3.5 mph - 0.00 in   Light Drizzle
9:54 PM 37.9 °F 34.4 °F 35.1 °F 89% 30.07 in 7.0 mi WSW 4.6 mph - 0.00 in   Overcast
10:54 PM 37.9 °F 33.5 °F 35.1 °F 89% 30.08 in 9.0 mi West 5.8 mph - 0.00 in   Light Drizzle
11:54 PM 37.9 °F 32.7 °F 34.0 °F 86% 30.08 in 9.0 mi West 6.9 mph - 0.00 in   Light Drizzle